Regional Weather Roundup
Issued by NWS San Diego, CA

Home | Current Version | Previous Version | Text Only | Print | Product List | Glossary On
Versions: 1 2 3 4 5 6 7 8 9 10 11 12 13 14 15 16 17 18 19 20 21 22 23 24 25 26 27
000
ASUS46 KSGX 030611
RWRSGX

SAN DIEGO HOURLY WEATHER ROUNDUP
NATIONAL WEATHER SERVICE SAN DIEGO CA
1100 PM PDT MON MAY 02 2016

NOTE: "FAIR" INDICATES FEW OR NO CLOUDS BELOW 12,000 FEET WITH NO
SIGNIFICANT WEATHER AND/OR OBSTRUCTIONS TO VISIBILITY.

CAZ042-043-060-061-PZZ750-775-030700-

GREATER SAN DIEGO AREA

CITY           SKY/WX    TMP DP  RH WIND       PRES   REMARKS
LINDBERGH FLD  PTCLDY    63  55  75 N3        30.02S
POINT LOMA       N/A     59  59 100 NW7         N/A
NATIONAL CITY    N/A     62  57  83 CALM      30.01F
CHULA VISTA      N/A     60  56  87 CALM      29.93S
IMPERIAL BEACH PTCLDY    59  54  83 CALM      30.01F
BROWN FIELD    PTCLDY    57  55  93 CALM      30.00F
MIRAMAR MCAS   PTCLDY    62  54  74 N3        30.00F
MONTGOMERY FLD CLEAR     61  55  81 NW3       30.00F

$$

NORTH SAN DIEGO COUNTY

CITY           SKY/WX    TMP DP  RH WIND       PRES   REMARKS
CAMP PENDLETON CLEAR     56  53  90 CALM      30.00F
OCEANSIDE AP   CLEAR     56  52  86 NE6       30.00S
OCEANSIDE HBR    N/A     61  58  90 CALM      30.03S
VISTA            N/A     57  52  84 CALM      29.99S
CARLSBAD       CLEAR     61  55  81 N3        29.99F
DEL MAR          N/A     58  56  91 CALM      30.03F
LA JOLLA SCRIP   N/A     59  57  91 N1        30.00S
FALLBROOK        N/A     57  56  97 CALM      29.98F
SAN MARCOS       N/A     57  48  73 CALM      29.98F
POWAY            N/A     57  53  85 CALM      30.01F

$$

EAST SAN DIEGO COUNTY

CITY           SKY/WX    TMP DP  RH WIND       PRES   REMARKS
RAMONA         CLEAR     53  50  89 CALM      30.01S FOG
SANTEE LAKES     N/A     58  55  88 CALM      29.99F
LA MESA          N/A     58  55  88 CALM      29.93S
JAMUL            N/A     57  53  87 CALM      30.00S
DESCANSO N       N/A     51  43  73 E5        29.89S
MT. LAGUNA OBS   N/A     53  33  47 NE10      29.72
CAMPO            N/A     51  45  79 NE5       30.00F

$$

ORANGE COUNTY AND THE LOS ANGELES BASIN

CITY           SKY/WX    TMP DP  RH WIND       PRES   REMARKS
JOHN WAYNE AP  CLEAR     60  55  83 CALM      30.00R
LAKE FOREST FR   N/A     60  50  69 CALM      29.88F
HUNTINGTON BCH   N/A     60  57  89 W6        30.01S
LOS ALAMITOS   FAIR      59  56  87 SW3       29.99S
FULLERTON      CLEAR     63  53  70 CALM      29.99R
LONG BEACH     CLEAR     60  56  86 SE3       29.99S
L.A. AP        CLEAR     59  53  80 S6        29.99R
L.A. DOWNTOWN  CLEAR     60  53  77 CALM      29.99R

$$

THE INLAND EMPIRE

CITY           SKY/WX    TMP DP  RH WIND       PRES   REMARKS
CORONA         CLEAR     61  51  70 CALM      30.00R
CHINO          CLEAR     60  52  74 NW3       30.01R
ONTARIO        PTCLDY    64  49  57 W5        30.00R
RIVERSIDE AP   CLEAR     66  51  58 W3        30.00S
MORENO VALLEY    N/A     63  51  64 CALM      28.12S
MARCH ARB      CLEAR     64  50  61 CALM      30.01R
HORSETHIEF CYN   N/A     63  51  67 S2        30.02R
PERRIS           N/A     62  56  81 SE2       29.98R
HEMET EAST       N/A     62  46  56 CALM      29.89S
FRENCH VALLEY  FAIR      59  52  77 CALM      30.02S
TEMECULA         N/A     59  56  87 E1        29.97F

$$

SAN BERNARDINO AND RIVERSIDE COUNTY MOUNTAINS

CITY           SKY/WX    TMP DP  RH WIND       PRES   REMARKS
BIG BEAR AP    CLEAR     36  32  87 CALM      30.22S
PINE COVE        N/A     50  37  60 CALM      30.02F

$$

SOUTHERN DESERT INCLUDING THE COACHELLA VALLEY

CITY           SKY/WX    TMP DP  RH WIND       PRES   REMARKS
PALM SPRINGS   PTCLDY    79  48  33 NW8       29.94S
THOUSAND PALMS   N/A     79  47  32 NW9       29.91S
PALM DESERT      N/A     79  49  34 CALM      28.43S
THERMAL        PTCLDY    68  47  46 NW3       29.88S
BLYTHE         CLEAR     76  37  24 N8        29.91S
IMPERIAL AP    CLEAR     76  43  30 N5        29.88S
EL CENTRO NAS  PTCLDY    75  38  26 N6        29.90S
YUMA AZ        CLEAR     75  45  34 W6        29.89S
MEXICALI       CLEAR     77  37  24 NW5       29.89F

$$

UPPER DESERT

CITY           SKY/WX    TMP DP  RH WIND       PRES   REMARKS
VICTORVILLE AP CLEAR     64  32  29 CALM      30.06R
HESPERIA         N/A     60  41  49 W5        30.11R
PALMDALE       CLEAR     63  41  44 SW6       30.05R
LANCASTER      CLEAR     62  38  40 W5        30.03S
EDWARDS AFB    PTCLDY    65  40  40 W5        30.01S
DAGGETT        CLEAR     68  35  29 CALM      30.02R
29 PALMS N     CLEAR     64  31  28 SW5       30.08S
NEEDLES        CLEAR     76  39  26 N6        29.95S

$$

REGIONAL REPORTS

CITY           SKY/WX    TMP DP  RH WIND       PRES   REMARKS
SANTA BARBARA  CLEAR     56  53  90 CALM      29.96F
SANDBERG       CLEAR     62  38  40 W3        30.13S
LAS VEGAS NV   CLEAR     72  36  26 N8        30.00S
PHOENIX AZ     CLEAR     78  38  23 NE6       29.90S
TIJUANA        MOCLDY    59  52  77 W5        30.03R
ENSENADA NW      N/A     60  32  34 CALM      29.97S

$$

OFFSHORE ISLANDS

CITY           SKY/WX    TMP DP  RH WIND       PRES   REMARKS
CATALINA ARPT  CLEAR     61  44  53 W5        30.02F
SAN NICOLAS IS CLEAR    N/A N/A N/A W10       30.00S

$$

MARINE AND OFFSHORE BUOY REPORTS

STATION/POSITION SKY/WX   TEMP    WIND        PRES    SWELL
                          AIR SEA DIR/SP/G            HT/PER/DIR
                          (F)     (DEG/KT/KT) (MB)    (FT/S/D)
TANNER BANKS               59 60  320/ 12/ 14 1016.5R   5/290/14
S CLEMENTE BASIN           59 61  290/ 10/ 10 1016.0F   5/210/14
SAN NICOLAS IS.               60                N/A     5/200/14
SO. S. ROSA ISLA           56 57  310/ 14/ 16 1015.8F   5/190/15
W. S. BARBARA CH           56 56  310/ 16/ 19 1014.6F   3/280/13
M. S. BARBARA CH           57 56  240/  8/ 10 1015.0F
S. MONICA BASIN            59 61  300/ 12/ 14 1015.6R   3/200/15
S PEDRO CHANNEL               62                N/A     2/200/13
OCEANSIDE OFFSHR              64                N/A     3/190/14
TORREY PINES OTR              65                N/A     3/200/14
LA JOLLA 1                 62 66  360/  4/  5 1015.9R
SAN DIEGO BAY                 68              1016.2R
POINT LOMA SOUTH              63                N/A     3/190/14

$$





USA.gov is the U.S. government's official web portal to all federal, state and local government web resources and services.